User: anonymous   Login
Location: Unspecified
(0.0000°N, 0.0000°E)
Time: 03:43:04
(UTC+00:00)
Language:

USA 245 - Orbit

View from above orbital plane
View from above orbital plane
View from above satellite
View from above satellite

Ground track
Ground track

The orbit data is extracted from the following two-line orbital elements,

1 39232U 13043A   18293.84460159 0.00006000  00000-0  59228-4 0    09
2 39232  97.9186 355.1900 0520110 205.0371 154.9628 14.80148404    00
Epoch (UTC): 20 October 2018 20:16:13
Eccentricity: 0.0520110
inclination: 97.9186°
perigee height: 264 km
apogee height: 993 km
right ascension of ascending node: 355.1900°
argument of perigee: 205.0371°
revolutions per day: 14.80148404
mean anomaly at epoch: 154.9628°
orbit number at epoch: 0

The dashed part of the orbit path shows where the satellite is in the earth's shadow,  

DLR